Regional Weather Roundup
Issued by NWS

Home | Current Version | Previous Version | Text Only | Print | Product List | Glossary Off
Versions: 1 2 3 4 5 6 7 8 9 10 11 12 13 14 15 16 17 18 19 20 21 22 23 24 25 26 27 28 29 30 31 32 33 34 35 36 37 38 39 40 41 42 43 44 45 46 47 48 49 50

000
ASUS45 KPSR 050810
RWRAZ

ARIZONA HOURLY REGIONAL WEATHER ROUNDUP
NATIONAL WEATHER SERVICE PHOENIX AZ
100 AM MST MON DEC 05 2016

NOTE: FAIR INDICATES FEW OR NO CLOUDS BELOW 12,000 FEET WITH NO
SIGNIFICANT WEATHER AND/OR OBSTRUCTIONS TO VISIBILITY.

AZZ001>003-036-050900-
NORTHWEST ARIZONA

CITY           SKY/WX    TMP DP  RH WIND       PRES   REMARKS
BULLHEAD CITY  MOCLDY    50  19  29 E5        29.94F
KINGMAN        MOCLDY    45  11  25 SE8       29.96F
$$

AZZ004>008-015-016-018-050900-
NORTH CENTRAL ARIZONA

CITY           SKY/WX    TMP DP  RH WIND       PRES   REMARKS
GRAND CANYON   MOCLDY    21  18  88 CALM      30.03F
PRESCOTT       PTCLDY    34  20  56 S7        30.01F WCI  28
FLAGSTAFF      MOCLDY    27  17  66 CALM      30.04F
PAYSON         CLEAR     43  14  31 E3        30.06F
PAGE           PTCLDY    34  14  43 CALM      29.95F
$$

AZZ009>014-017-050900-
NORTHEAST ARIZONA

CITY           SKY/WX    TMP DP  RH WIND       PRES   REMARKS
WINSLOW        PTCLDY    26  15  63 SE7       30.00F WCI  18
SAINT JOHNS    CLEAR     27  15  61 S3        30.04F
WINDOW ROCK    CLEAR     20  14  77 CALM      30.03F
SHOW LOW       CLEAR     28  14  54 S10       30.05F WCI  19
$$

AZZ023-050900-
GREATER PHOENIX AREA

CITY           SKY/WX    TMP DP  RH WIND       PRES   REMARKS
PHOENIX        CLEAR     50  26  39 E8        29.95F
BUCKEYE        PTCLDY    41  27  56 CALM      29.97S
LUKE AFB       CLEAR     45  31  57 N5        29.95S
DEER VALLEY    CLEAR     46  22  38 CALM      29.95F
SCOTTSDALE     CLEAR     48  27  44 NE3       29.96F
MESA-GATEWAY   CLEAR     41  23  48 SE8       29.97F
$$

AZZ027-028-050900-
SOUTHWEST MARICOPA COUNTY AND PINAL COUNTY

CITY           SKY/WX    TMP DP  RH WIND       PRES   REMARKS
CASA GRANDE    NOT AVBL
$$

AZZ503-504-507>509-050900-
SOUTHEAST ARIZONA

CITY           SKY/WX    TMP DP  RH WIND       PRES   REMARKS
TUCSON         CLEAR     43  21  41 SE8       30.02F
DAVIS-MONTHAN  CLEAR     45  21  39 SE7       30.00F
NOGALES        CLEAR     35  23  61 E5        30.03F WCI  31
SIERRA VISTA   CLEAR     37  21  53 S5        30.04F WCI  33
DOUGLAS        CLEAR     28  24  85 NE5       30.03F WCI  23
SAFFORD        CLEAR     35  25  66 SE5       30.01F WCI  31
$$

AZZ020-021-025-026-031-050900-
SOUTHWEST ARIZONA

CITY           SKY/WX    TMP DP  RH WIND       PRES   REMARKS
YUMA           PTCLDY    50  18  28 NE3       29.93F
$$

CAZ031-033-041-043-047-048-061-050900-
SOUTHERN CALIFORNIA

CITY           SKY/WX    TMP DP  RH WIND       PRES   REMARKS
DOWNTOWN L.A.  CLEAR     52  49  89 CALM      29.98S
L.A. AIRPORT   PTCLDY    55  54  96 VRB3      29.99S
SAN DIEGO      MOCLDY    55  54  96 S6        30.01F
BURBANK        CLEAR     50  28  42 CALM      29.98F
ONTARIO        MOCLDY    48  35  60 SW8       29.98F
RIVERSIDE      CLEAR     52  39  61 NE5       29.99F
PALM SPRINGS   MOCLDY    52  33  48 CALM      29.94F
EL CENTRO NAS  MOCLDY    48  26  42 SW5       29.94S
IMPERIAL       MOCLDY    48  32  53 SW5       29.92F
BLYTHE         PTCLDY    45  19  35 N6        29.92F
NEEDLES        MOCLDY    50  14  23 NW5       29.94F
$$

NVZ020-UTZ003-050900-
SOUTHERN NEVADA-UTAH

CITY           SKY/WX    TMP DP  RH WIND       PRES   REMARKS
LAS VEGAS      MOCLDY    45  14  28 CALM      29.92F
SALT LAKE CITY CLOUDY    48  23  37 SE12      29.76S
$$

NMZ009-TXZ055-050900-
NEW MEXICO-WEST TEXAS

CITY           SKY/WX    TMP DP  RH WIND       PRES   REMARKS
ALBUQUERQUE    CLOUDY    31  13  47 SE3       30.01F
EL PASO        CLEAR     40  34  79 SE5       30.02F
$$


........................KEY........................
SKY/WX - SKY CONDITION/WEATHER
TMP    - TEMPERATURE IN FAHRENHEIT
DP     - DEW POINT IN FAHRENHEIT
RH     - RELATIVE HUMIDITY IN PERCENT
WIND   - DIRECTION AND SPEED IN MILES PER HOUR (MPH)
VRB    - VARIABLE WIND DIRECTION
PRES   - MEAN SEA LEVEL PRESSURE IN INCHES OF MERCURY
         F - FALLING PRESSURE   R - RISING PRESSURE
         S - STEADY PRESSURE
VSB    - VISIBILITY IN MILES
HX     - HEAT INDEX IN FAHRENHEIT
WCI    - WIND CHILL INDEX IN FAHRENHEIT
TC     - TEMPERATURE IN CELSIUS WHICH IS ALSO KNOWN AS
         TEMPERATURE IN CENTIGRADE
AFB    - AIR FORCE BASE
         LUKE AFB IS LUKE AIR FORCE BASE
         DAVIS-MONTHAN IS DAVIS-MONTHAN AIR FORCE BASE
NAS    - NAVAL AIR STATION
         EL CENTRO NAS IS EL CENTRO NAVAL AIR STATION
N/A    - NOT AVAILABLE




USA.gov is the U.S. government's official web portal to all federal, state and local government web resources and services.